Location: Most
(50.5133°N, 13.6207°E)
Time: 20:52:51
(UTC+02:00)

ISS - Pass Details

Date: 28 September 2024
Orbit: 412 x 424 km, 51.6° (Epoch: 09 October)

Event Time Altitude Azimuth Distance (km) Brightness Sun altitude
Rises 20:40:00 0° 283° (WNW) 2,370 1.7 -18.2°
Reaches altitude 10° 20:42:35 10° 262° (W) 1,506 0.0 -18.5°
Maximum altitude 20:44:53 17° 220° (SW) 1,143 -1.4 -18.9°
Enters shadow 20:46:08 15° 193° (SSW) 1,261 -1.4 -19.1°
